This is the latest recevied weather packets stored in our database for station/object IZ5MMH-3. If no packets are shown the sender has not sent any weather packets the latest 10 day(s).
| Time | Temp. | Humidity | Pressure | Rain* | Wind** | Luminosity | Snow |
|---|---|---|---|---|---|---|---|
| 1788527030 | 32.78° C | 54% | 1018.7 hPa | - | - | - | - |
| 1788526430 | 32.78° C | 53% | 1018.7 hPa | - | - | - | - |
| 1788525830 | 32.22° C | 56% | 1018.8 hPa | - | - | - | - |
| 1788525230 | 32.22° C | 58% | 1019 hPa | - | - | - | - |
| 1788524630 | 32.22° C | 59% | 1019 hPa | - | - | - | - |
| 1788524030 | 31.67° C | 60% | 1019 hPa | - | - | - | - |
| 1788523430 | 31.67° C | 59% | 1019 hPa | - | - | - | - |
| 1788522830 | 31.11° C | 61% | 1019.1 hPa | - | - | - | - |
| 1788522230 | 31.11° C | 58% | 1019.1 hPa | - | - | - | - |
| 1788521630 | 31.11° C | 58% | 1019.1 hPa | - | - | - | - |
| 1788521030 | 31.11° C | 59% | 1019.2 hPa | - | - | - | - |
| 1788520430 | 30.56° C | 63% | 1019.3 hPa | - | - | - | - |
| 1788519830 | 30.56° C | 64% | 1019.3 hPa | - | - | - | - |
| 1788519230 | 30.56° C | 64% | 1019.3 hPa | - | - | - | - |
| 1788518630 | 30.56° C | 63% | 1019.2 hPa | - | - | - | - |
| 1788518030 | 30.56° C | 60% | 1019.2 hPa | - | - | - | - |
| 1788517430 | 30.56° C | 62% | 1019.3 hPa | - | - | - | - |
| 1788516831 | 30° C | 63% | 1019.4 hPa | - | - | - | - |
| 1788516230 | 30° C | 63% | 1019.4 hPa | - | - | - | - |
| 1788515630 | 30° C | 64% | 1019.5 hPa | - | - | - | - |
| 1788515030 | 30° C | 63% | 1019.5 hPa | - | - | - | - |
| 1788514430 | 30° C | 65% | 1019.6 hPa | - | - | - | - |
| 1788513829 | 30° C | 65% | 1019.5 hPa | - | - | - | - |
| 1788513230 | 30° C | 60% | 1019.5 hPa | - | - | - | - |
| 1788512630 | 29.44° C | 58% | 1019.5 hPa | - | - | - | - |
* Rain since midnight (hover to see other rain measurements)
** Current wind speed in m/s (hover to see current wind gust speed)